This demonstration page uses our WeatherBlox Daily Observations layout. Learn more.

Left ArrowRight Arrow

34.02893, -84.19858

Hourly Observations for August 29, 2020

Temp ( °F °C ) Dew Point ( °F °C ) Humidity (%) Winds ( mph kmh ) Pressure ( in mb ) Visibility ( mi km ) Precip ( " mm )
12:53 am 00:53 Mostly Cloudy 76 24.4 72 22.2 88 88 SW 13 20 29.88 1012 10 16 0.00 0.00
1:53 am 01:53 Mostly Cloudy 76 24.4 72 22.2 88 88 SW 12 19 29.87 1011 10 16 0.00 0.00
2:53 am 02:53 Cloudy 76 24.4 71 21.7 85 85 SW 13 20 29.85 1011 10 16 0.00 0.00
3:53 am 03:53 Cloudy 75 23.9 71 21.7 88 88 WSW 13 20 29.84 1011 10 16 0.00 0.00
4:53 am 04:53 Mostly Cloudy 75 23.9 72 22.2 90 90 SW 8 13 29.82 1010 10 16 0.00 0.00
5:28 am 05:28 Mostly Cloudy 75 23.9 72 22.2 90 90 SW 10 17 29.84 1011 10 16 0.00 0.00
5:53 am 05:53 Cloudy 75 23.9 72 22.2 90 90 SW 10 17 29.83 1010 10 16 0.00 0.00
6:53 am 06:53 Cloudy 75 23.9 72 22.2 90 90 SW 9 15 29.84 1010 10 16 0.00 0.00
7:53 am 07:53 Cloudy 75 23.9 72 22.2 90 90 SW 13 20 29.84 1011 10 16 0.00 0.00
8:53 am 08:53 Cloudy 76 24.4 72 22.2 88 88 SW 8 13 29.85 1011 10 16 0.00 0.00
9:53 am 09:53 Cloudy 76 24.4 72 22.2 88 88 WSW 9 15 29.86 1011 10 16 0.00 0.00
10:08 am 10:08 Cloudy 76 24.4 73 22.8 91 91 WSW 9 15 29.87 1011 10 16 0.00 0.00
10:30 am 10:30 Cloudy 78 25.6 73 22.8 85 85 WSW 12 19 29.87 1012 10 16 0.00 0.00
10:53 am 10:53 Cloudy 78 25.6 72 22.2 82 82 WSW 12 19 29.86 1011 10 16 0.00 0.00
11:32 am 11:32 Cloudy 79 26.1 73 22.8 82 82 W 12 19 29.87 1012 10 16 0.00 0.00
11:53 am 11:53 Mostly Cloudy 81 27.2 73 22.8 77 77 W 12 19 29.86 1011 10 16 0.00 0.00
12:17 pm 12:17 Mostly Cloudy 82 27.8 72 22.2 72 72 W 8 13 29.86 1011 10 16 0.00 0.00
12:51 pm 12:51 Mostly Cloudy 84 29 72 22 66 66 W 14 22 29.84 1011 10 16 0.00 0.00
12:53 pm 12:53 Mostly Cloudy 84 28.9 72 22.2 67 67 W 14 22 29.84 1011 10 16 0.00 0.00
1:53 pm 13:53 Mostly Cloudy 85 29.4 71 21.7 63 63 WNW 9 15 29.83 1010 10 16 0.00 0.00
2:53 pm 14:53 Mostly Cloudy 86 30 72 22.2 63 63 WNW 12 19 29.82 1010 10 16 0.00 0.00
3:53 pm 15:53 Mostly Cloudy 87 30.6 71 21.7 59 59 WNW 12 19 29.81 1009 10 16 0.00 0.00
4:53 pm 16:53 Mostly Cloudy 88 31.1 72 22.2 59 59 NNW 9 15 29.80 1009 10 16 0.00 0.00
5:53 pm 17:53 Sunny 87 30.6 70 21.1 57 57 WNW 8 13 29.79 1009 10 16 0.00 0.00
6:53 pm 18:53 Sunny 86 30 71 21.7 61 61 W 6 9 29.79 1009 10 16 0.00 0.00
7:53 pm 19:53 Sunny 83 28.3 72 22.2 70 70 WNW 5 7 29.80 1009 10 16 0.00 0.00
8:53 pm 20:53 Clear 81 27.2 73 22.8 77 77 W 3 6 29.82 1010 10 16 0.00 0.00
9:53 pm 21:53 Mostly Clear 80 26.7 73 22.8 79 79 W 5 7 29.84 1010 10 16 0.00 0.00
10:53 pm 22:53 Clear 79 26.1 73 22.8 82 82 WSW 5 7 29.85 1011 10 16 0.00 0.00
11:53 pm 23:53 Clear 78 25.6 74 23.3 87 87 WSW 8 13 29.82 1010 10 16 0.00 0.00

Powered by AerisWeather